RH
90 92 90 91 86 75 72 71 67 63 59 57 57 59 61 61 59 58 57 63 65 68 66 67 64 63 68 70 74 75 68 62 60 61 59 63 65 63 70 68 71 75 72
94 94 94 91 84 81 76 67 60 57 57 55 53 55 55 58 58 59 53 59 60 65 67 68 66 63 62 60 61 66 69 67 60 58 63 66 62 67 66 67 69 71 73
91 92 96 94 93 88 90 80 71 60 53 54 53 54 51 49 53 56 59 59 55 56 63 68 66 60 56 56 55 56 59 64 65 64 69 70 69 70 74 74 75 75 77
75 76 90 95 94 90 89 85 77 75 68 63 60 56 57 59 60 62 65 66 68 63 62 66 68 69 67 54 48 47 49 53 56 59 62 66 66 66 66 69 68 68 68
61 60 67 87 90 83 86 90 84 85 79 72 78 72 69 68 68 68 66 67 72 71 76 69 73 75 71 68 70 57 47 44 46 48 50 51 53 54 56 58 59 59 59
59 55 58 57 66 73 74 82 87 80 86 81 77 80 78 78 77 74 71 72 71 76 79 78 74 73 73 75 76 77 74 69 63 55 48 45 47 49 51 51 52 53 52
57 54 53 52 48 52 56 59 70 78 79 81 83 83 78 78 81 79 78 77 73 77 79 81 80 81 80 76 71 74 77 76 74 70 68 67 61 54 52 50 48 48 46
64 64 65 64 57 47 45 48 51 58 68 70 75 71 72 78 76 75 75 76 78 76 76 80 81 79 80 80 77 75 73 73 78 78 76 72 67 68 69 63 57 55 52
75 76 75 73 71 71 65 59 47 45 47 52 56 61 64 71 72 72 71 68 71 75 70 72 76 75 74 74 73 74 70 68 68 73 76 79 75 71 66 65 68 68 64
75 76 77 78 78 77 74 76 73 61 58 51 43 41 49 52 56 61 67 65 70 64 65 61 67 73 74 72 74 77 72 67 65 66 64 70 74 73 69 67 63 62 67
77 79 78 81 80 77 78 77 73 72 72 73 74 67 61 52 48 56 67 64 60 65 63 68 70 57 63 65 67 73 77 75 72 68 66 60 61 71 72 70 68 65 63
66 71 71 71 74 72 76 77 75 76 80 74 75 79 77 71 67 51 59 71 60 56 54 61 67 61 58 63 64 66 73 77 76 73 68 65 55 59 67 71 70 70 65
73 67 63 62 61 60 68 72 74 78 80 82 81 82 82 82 79 80 78 68 66 61 66 58 61 52 53 57 63 62 62 65 73 70 68 65 57 52 56 63 66 69 64
72 74 75 75 74 68 67 69 70 72 72 67 72 77 81 85 82 79 80 83 75 70 73 69 71 66 67 65 71 67 56 50 68 65 64 60 59 56 56 62 62 61 55
48 58 64 52 51 59 62 69 71 69 68 71 68 69 73 72 79 78 75 75 79 79 79 82 78 70 76 77 72 70 70 60 60 64 62 59 58 57 59 63 62 67 68
29 30 29 42 49 52 56 60 63 67 65 70 71 72 73 74 72 71 76 79 83 85 80 82 79 79 78 76 82 81 79 78 67 60 58 64 64 64 60 61 65 62 64
26 26 26 27 29 36 45 51 54 58 59 62 72 82 77 78 79 79 81 78 75 82 84 85 85 81 81 81 82 79 82 82 80 75 64 62 66 71 63 61 58 60 62
20 22 24 25 26 28 32 33 41 49 54 62 63 78 83 84 86 85 83 84 79 77 75 75 82 84 83 81 80 82 84 84 83 81 71 63 69 72 71 69 66 59 59
16 18 20 22 23 24 25 30 34 37 44 50 59 63 72 79 87 94 89 81 79 78 77 74 76 77 79 81 79 85 85 84 83 85 80 71 61 61 65 60 65 66 63
13 13 16 18 21 24 26 27 29 34 40 40 49 58 66 67 67 86 87 83 77 75 72 68 70 74 75 76 78 79 87 85 86 86 85 86 82 72 62 54 53 59 70
16 15 15 15 17 21 26 28 31 33 35 36 45 47 53 63 63 69 67 77 72 79 79 75 71 71 74 73 69 66 73 75 79 86 83 85 90 89 87 85 74 53 57
19 19 18 17 17 18 20 24 28 30 35 40 39 40 42 47 60 64 66 69 65 70 71 69 60 61 68 70 77 74 63 60 60 73 69 69 75 77 80 81 81 79 58
22 23 23 23 22 21 21 22 27 30 33 36 41 41 42 53 48 51 56 68 71 76 62 63 56 58 59 61 72 81 74 68 61 63 75 86 84 76 78 79 86 88 77
24 26 26 27 27 27 26 26 26 30 35 38 40 42 46 50 50 54 54 64 70 67 71 60 56 57 54 55 62 69 68 78 73 69 73 83 85 79 83 81 86 91 84
27 28 30 31 31 31 31 30 30 28 35 40 44 45 45 44 46 51 55 57 61 58 53 58 50 49 49 51 53 60 63 74 77 75 74 82 88 83 76 81 88 89 83
29 30 33 35 36 36 35 35 34 32 35 44 47 50 48 48 53 59 62 66 65 63 58 56 53 48 45 46 48 49 62 65 68 75 81 85 86 87 87 77 77 79 82